FW4301 Weather Reports


Display with metric or nautical units.
time (UTC)temp
F
wind
direction
speed
MPH
gust
MPH
rain 1hr
in
rain 24hr
in
rain mn
in
humidity
%
barometer
mb
20260503200049 83 0 0.0 5.0 0.00 0.00 0.00 22 1018.6
20260503195530 83 0 0.0 3.0 0.00 0.00 0.00 22 1018.8
20260503195029 83 0 0.0 2.0 0.00 0.00 0.00 26 1018.7
20260503194547 83 0 0.0 2.0 0.00 0.00 0.00 26 1018.8
20260503194029 82 0 0.0 5.0 0.00 0.00 0.00 23 1018.8
20260503193529 82 0 0.0 5.0 0.00 0.00 0.00 23 1018.9
20260503193049 82 0 0.0 4.0 0.00 0.00 0.00 26 1019.1
20260503192529 82 40 0.0 4.0 0.00 0.00 0.00 24 1019.2
20260503192029 82 40 0.0 3.0 0.00 0.00 0.00 25 1019.3
20260503191542 82 0 0.0 4.0 0.00 0.00 0.00 24 1019.3
20260503191029 82 0 0.0 4.0 0.00 0.00 0.00 26 1019.5
20260503190529 82 40 0.0 4.0 0.00 0.00 0.00 26 1019.4
20260503190046 82 0 0.0 4.0 0.00 0.00 0.00 27 1019.5
20260503185529 82 0 0.0 4.0 0.00 0.00 0.00 27 1019.6
20260503185030 82 40 0.0 3.0 0.00 0.00 0.00 26 1019.7
20260503184545 82 0 0.0 3.0 0.00 0.00 0.00 29 1019.7
20260503184032 82 0 0.0 5.0 0.00 0.00 0.00 26 1019.8
20260503183528 81 40 0.0 5.0 0.00 0.00 0.00 27 1019.9
20260503183045 81 40 0.0 5.0 0.00 0.00 0.00 26 1019.9
20260503182530 81 0 0.0 4.0 0.00 0.00 0.00 29 1020.0
20260503182030 81 40 0.0 5.0 0.00 0.00 0.00 27 1020.1
20260503181542 81 40 1.0 5.0 0.00 0.00 0.00 25 1020.3
20260503181031 81 40 0.0 3.0 0.00 0.00 0.00 27 1020.4
20260503180529 81 0 0.0 3.0 0.00 0.00 0.00 29 1020.4
20260503175529 81 0 0.0 3.0 0.00 0.00 0.00 28 1020.7
20260503175029 81 0 0.0 4.0 0.00 0.00 0.00 32 1020.6
20260503174547 81 0 0.0 4.0 0.00 0.00 0.00 29 1020.8
20260503174032 80 40 0.0 4.0 0.00 0.00 0.00 30 1020.9
20260503173530 80 40 0.0 4.0 0.00 0.00 0.00 30 1021.0
20260503173052 80 40 0.0 3.0 0.00 0.00 0.00 30 1021.0
20260503172529 80 0 0.0 3.0 0.00 0.00 0.00 35 1021.2
20260503172029 80 0 0.0 3.0 0.00 0.00 0.00 34 1021.2
20260503171546 80 0 0.0 3.0 0.00 0.00 0.00 34 1021.3
20260503171029 79 0 0.0 3.0 0.00 0.00 0.00 35 1021.4
20260503170529 79 0 0.0 5.0 0.00 0.00 0.00 35 1021.4
20260503160107 74 40 0.0 5.0 0.00 0.00 0.00 39 1021.9
20260503150530 71 0 0.0 3.0 0.00 0.00 0.00 44 1021.9
20260503131030 54 0 0.0 0.0 0.00 0.00 0.00 75 1021.4
20260503130529 53 0 0.0 0.0 0.00 0.00 0.00 74 1021.5
20260503110529 51 0 0.0 0.0 0.00 0.00 0.00 66 1020.2
20260503081539 54 0 0.0 0.0 0.00 0.00 0.00 63 1020.0
20260503081029 54 0 0.0 0.0 0.00 0.00 0.00 63 1020.1
20260503080529 54 0 0.0 0.0 0.00 0.00 0.00 63 1020.1
20260503072532 56 0 0.0 0.0 0.00 0.00 0.00 61 1020.2
20260503072030 56 0 0.0 0.0 0.00 0.00 0.00 61 1020.3
20260503071551 56 0 0.0 0.0 0.00 0.00 0.00 61 1020.3
20260503071029 56 0 0.0 0.0 0.00 0.00 0.00 61 1020.4
20260503070532 56 0 0.0 0.0 0.00 0.00 0.00 60 1020.5
20260503060108 57 0 0.0 0.0 0.00 0.00 0.00 61 1020.5
20260503055030 57 0 0.0 0.0 0.00 0.00 0.00 61 1020.5
20260503054557 57 0 0.0 0.0 0.00 0.00 0.00 60 1020.4
20260503054030 57 0 0.0 0.0 0.00 0.00 0.00 60 1020.4
20260503053530 57 0 0.0 0.0 0.00 0.00 0.00 60 1020.5
20260503053041 57 0 0.0 0.0 0.00 0.00 0.00 61 1020.4
20260503052529 57 0 0.0 0.0 0.00 0.00 0.00 60 1020.3
20260503052032 57 0 0.0 0.0 0.00 0.00 0.00 61 1020.3
20260503051541 57 0 0.0 0.0 0.00 0.00 0.00 61 1020.3
20260503051032 57 0 0.0 0.0 0.00 0.00 0.00 61 1020.3
20260503050529 57 0 0.0 0.0 0.00 0.00 0.00 61 1020.3
20260503050041 57 0 0.0 0.0 0.00 0.00 0.00 61 1020.1
20260503045530 57 0 0.0 0.0 0.00 0.00 0.00 61 1020.1
20260503045029 57 0 0.0 0.0 0.00 0.00 0.00 61 1020.2
20260503044542 58 0 0.0 0.0 0.00 0.00 0.00 62 1020.1
20260503044029 58 0 0.0 0.0 0.00 0.00 0.00 61 1020.2
20260503043529 58 0 0.0 0.0 0.00 0.00 0.00 61 1020.2
20260503043050 58 0 0.0 0.0 0.00 0.00 0.00 62 1020.1
20260503042532 58 0 0.0 0.0 0.00 0.00 0.00 61 1020.1
20260503042029 58 0 0.0 0.0 0.00 0.00 0.00 61 1020.2
20260503041545 58 0 0.0 0.0 0.00 0.00 0.00 61 1020.2
20260503041028 58 0 0.0 0.0 0.00 0.00 0.00 60 1020.3
20260503040529 58 0 0.0 0.0 0.00 0.00 0.00 60 1020.3
20260503040057 58 0 0.0 0.0 0.00 0.00 0.00 60 1020.2
20260503035530 59 0 0.0 0.0 0.00 0.00 0.00 60 1020.1
20260503035030 59 0 0.0 0.0 0.00 0.00 0.00 59 1020.2
20260503034549 60 0 0.0 0.0 0.00 0.00 0.00 59 1020.1
20260503034030 60 0 0.0 0.0 0.00 0.00 0.00 58 1020.1
20260503033530 61 0 0.0 0.0 0.00 0.00 0.00 56 1020.2
20260503033046 62 0 0.0 0.0 0.00 0.00 0.00 56 1020.1
20260503032529 62 0 0.0 0.0 0.00 0.00 0.00 54 1020.1
20260503032029 62 0 0.0 0.0 0.00 0.00 0.00 53 1020.0
20260503031539 63 0 0.0 0.0 0.00 0.00 0.00 53 1020.0
20260503031030 63 0 0.0 0.0 0.00 0.00 0.00 52 1019.9
20260503030530 63 0 0.0 0.0 0.00 0.00 0.00 51 1019.9
20260503030045 64 0 0.0 0.0 0.00 0.00 0.00 51 1019.7
20260503025529 64 0 0.0 0.0 0.00 0.00 0.00 50 1019.7
20260503025029 64 0 0.0 0.0 0.00 0.00 0.00 50 1019.7
20260503024542 64 0 0.0 0.0 0.00 0.00 0.00 50 1019.6
20260503024030 65 0 0.0 0.0 0.00 0.00 0.00 49 1019.5
20260503023530 65 0 0.0 0.0 0.00 0.00 0.00 48 1019.6
20260503023055 65 0 0.0 0.0 0.00 0.00 0.00 47 1019.5
20260503022529 65 0 0.0 0.0 0.00 0.00 0.00 47 1019.4
20260503022029 66 0 0.0 0.0 0.00 0.00 0.00 46 1019.4
20260503021555 66 0 0.0 0.0 0.00 0.00 0.00 46 1019.4
20260503021029 67 0 0.0 0.0 0.00 0.00 0.00 46 1019.3
20260503020529 67 0 0.0 0.0 0.00 0.00 0.00 46 1019.4
20260503020050 68 0 0.0 0.0 0.00 0.00 0.00 47 1019.3
20260503015529 68 0 0.0 0.0 0.00 0.00 0.00 44 1019.3
20260503015029 69 0 0.0 0.0 0.00 0.00 0.00 46 1019.3
20260503014545 69 0 0.0 0.0 0.00 0.00 0.00 45 1019.2
20260503014029 70 0 0.0 0.0 0.00 0.00 0.00 44 1019.2
20260503013530 70 0 0.0 0.0 0.00 0.00 0.00 43 1019.1
20260503013041 71 0 0.0 0.0 0.00 0.00 0.00 41 1019.1
20260503012532 72 0 0.0 0.0 0.00 0.00 0.00 40 1019.1
20260503012029 72 0 0.0 0.0 0.00 0.00 0.00 39 1019.1
20260503011540 73 0 0.0 0.0 0.00 0.00 0.00 37 1019.1
20260503011029 73 0 0.0 0.0 0.00 0.00 0.00 36 1019.1
20260503010529 74 0 0.0 0.0 0.00 0.00 0.00 36 1019.1
20260503010039 75 0 0.0 0.0 0.00 0.00 0.00 35 1019.0
20260503005530 76 0 0.0 0.0 0.00 0.00 0.00 34 1018.9
20260503005031 76 0 0.0 0.0 0.00 0.00 0.00 33 1019.1
20260503004555 77 0 0.0 0.0 0.00 0.00 0.00 33 1019.1
20260503004029 78 0 0.0 0.0 0.00 0.00 0.00 34 1018.9
20260503003529 78 0 0.0 0.0 0.00 0.00 0.00 32 1019.0
20260503003101 78 0 0.0 0.0 0.00 0.00 0.00 29 1019.1
20260503002529 79 0 0.0 0.0 0.00 0.00 0.00 31 1018.9
20260503002030 80 0 0.0 0.0 0.00 0.00 0.00 29 1018.9
20260503001559 80 0 0.0 0.0 0.00 0.00 0.00 29 1018.9
20260503001029 81 0 0.0 0.0 0.00 0.00 0.00 32 1018.9
20260503000529 81 0 0.0 0.0 0.00 0.00 0.00 32 1018.9
20260503000040 81 0 0.0 0.0 0.00 0.00 0.00 27 1018.9
20260502235529 82 0 0.0 0.0 0.00 0.00 0.00 28 1018.9
20260502235029 82 0 0.0 0.0 0.00 0.00 0.00 27 1019.1
20260502234539 82 0 0.0 0.0 0.00 0.00 0.00 25 1018.9
20260502234030 82 0 0.0 0.0 0.00 0.00 0.00 24 1018.9
20260502233529 83 0 0.0 0.0 0.00 0.00 0.00 27 1018.9
20260502233046 83 0 0.0 0.0 0.00 0.00 0.00 25 1019.0
20260502232529 83 0 0.0 0.0 0.00 0.00 0.00 27 1018.9
20260502232029 83 0 0.0 0.0 0.00 0.00 0.00 27 1019.0
20260502231546 83 0 0.0 0.0 0.00 0.00 0.00 26 1019.1
20260502231029 83 0 0.0 0.0 0.00 0.00 0.00 22 1019.1
20260502230529 83 0 0.0 0.0 0.00 0.00 0.00 25 1019.2
20260502230047 83 0 0.0 0.0 0.00 0.00 0.00 24 1019.1
20260502225532 83 0 0.0 0.0 0.00 0.00 0.00 25 1019.2
20260502225030 83 0 0.0 0.0 0.00 0.00 0.00 28 1019.2
20260502224541 83 0 0.0 0.0 0.00 0.00 0.00 28 1019.2
20260502224030 83 0 0.0 0.0 0.00 0.00 0.00 23 1019.2
20260502223530 83 0 0.0 0.0 0.00 0.00 0.00 25 1019.3
20260502223041 83 0 0.0 0.0 0.00 0.00 0.00 26 1019.4
20260502222530 82 0 0.0 0.0 0.00 0.00 0.00 24 1019.4
20260502222030 83 0 0.0 0.0 0.00 0.00 0.00 20 1019.4
20260502221547 84 0 0.0 0.0 0.00 0.00 0.00 20 1019.5
20260502221030 83 0 0.0 0.0 0.00 0.00 0.00 23 1019.5
20260502220529 83 0 0.0 0.0 0.00 0.00 0.00 25 1019.5
20260502220047 83 0 0.0 0.0 0.00 0.00 0.00 27 1019.5
20260502215529 84 0 0.0 0.0 0.00 0.00 0.00 29 1019.5
20260502215029 84 0 0.0 0.0 0.00 0.00 0.00 27 1019.5
20260502214543 84 0 0.0 0.0 0.00 0.00 0.00 25 1019.6
20260502214030 84 0 0.0 0.0 0.00 0.00 0.00 30 1019.7
20260502213529 83 0 0.0 0.0 0.00 0.00 0.00 30 1019.8
20260502213101 83 0 0.0 0.0 0.00 0.00 0.00 30 1019.7
20260502212529 83 0 0.0 0.0 0.00 0.00 0.00 24 1019.8
20260502212030 84 0 0.0 0.0 0.00 0.00 0.00 26 1019.9
20260502211546 85 0 0.0 0.0 0.00 0.00 0.00 23 1019.9
20260502211030 86 0 0.0 0.0 0.00 0.00 0.00 27 1020.0
20260502210529 85 0 0.0 0.0 0.00 0.00 0.00 32 1020.0
20260502210043 85 0 0.0 0.0 0.00 0.00 0.00 30 1020.0
20260502205530 85 0 0.0 0.0 0.00 0.00 0.00 30 1020.0
20260502205029 85 0 0.0 0.0 0.00 0.00 0.00 24 1020.1
20260502204544 84 0 0.0 0.0 0.00 0.00 0.00 28 1020.1
20260502204030 84 0 0.0 0.0 0.00 0.00 0.00 34 1020.1
20260502203530 83 0 0.0 0.0 0.00 0.00 0.00 36 1020.1
20260502203042 83 0 0.0 0.0 0.00 0.00 0.00 34 1020.1
20260502202529 82 0 0.0 0.0 0.00 0.00 0.00 30 1020.2
20260502202029 82 0 0.0 0.0 0.00 0.00 0.00 34 1020.3
20260502201539 81 0 0.0 0.0 0.00 0.00 0.00 28 1020.3
20260502201029 81 0 0.0 0.0 0.00 0.00 0.00 25 1020.3
20260502200529 81 0 0.0 0.0 0.00 0.00 0.00 34 1020.4